Location: Hurstbourne Priors
(51.2000°N, 1.3667°W)
Time: 20:18:41
(UTC+00:00)

Transit 4A - Pass Details

Date: 27 April 2021
Orbit: 870 x 974 km, 66.8° (Epoch: 09 May)

Event Time Altitude Azimuth Distance (km) Brightness Sun altitude
Rises 03:50:08 0° 315° (NW) 3,550 10.8 -8.4°
Reaches altitude 10° 03:53:15 10° 330° (NNW) 2,588 10.3 -8.0°
Maximum altitude 03:57:55 23° 21° (NNE) 1,805 10.2 -7.4°
Drops below altitude 10° 04:02:31 10° 73° (ENE) 2,540 11.7 -6.8°
Sets 04:05:32 0° 88° (E) 3,467 12.1 -6.4°
